This is the latest recevied weather packets stored in our database for station/object KC5TIL-3. If no packets are shown the sender has not sent any weather packets the latest 10 day(s).
| Time | Temp. | Humidity | Pressure | Rain* | Wind** | Luminosity | Snow |
|---|---|---|---|---|---|---|---|
| 1787474435 | 31.67° C | 17% | 1010.8 hPa | 0 mm | 3.13 m/s, 225° | - | - |
| 1787474137 | 32.22° C | 17% | 1010.8 hPa | 0 mm | 2.68 m/s, 215° | - | - |
| 1787473839 | 32.22° C | 15% | 1010.8 hPa | 0 mm | 3.13 m/s, 221° | - | - |
| 1787473537 | 32.22° C | 14% | 1010.8 hPa | 0 mm | 2.68 m/s, 217° | - | - |
| 1787473239 | 32.78° C | 14% | 1010.8 hPa | 0 mm | 3.13 m/s, 195° | - | - |
| 1787472941 | 32.78° C | 14% | 1011.8 hPa | 0 mm | 3.13 m/s, 223° | - | - |
| 1787472640 | 32.78° C | 14% | 1011.8 hPa | 0 mm | 3.13 m/s, 225° | - | - |
| 1787472341 | 32.78° C | 14% | 1011.8 hPa | 0 mm | 2.68 m/s, 234° | - | - |
| 1787472043 | 32.78° C | 14% | 1011.8 hPa | 0 mm | 1.79 m/s, 172° | - | - |
| 1787471737 | 32.78° C | 14% | 1011.8 hPa | 0 mm | 1.79 m/s, 214° | - | - |
| 1787471439 | 32.78° C | 14% | 1011.8 hPa | 0 mm | 0 m/s | - | - |
| 1787471141 | 32.78° C | 14% | 1011.8 hPa | 0 mm | 0 m/s | - | - |
| 1787470840 | 32.78° C | 17% | 1011.8 hPa | 0 mm | 0 m/s | - | - |
| 1787470541 | 32.78° C | 14% | 1011.8 hPa | 0 mm | 0 m/s | - | - |
| 1787470243 | 32.78° C | 14% | 1011.8 hPa | 0 mm | 0 m/s | - | - |
| 1787469942 | 32.78° C | 14% | 1011.8 hPa | 0 mm | 0 m/s | - | - |
| 1787469644 | 32.78° C | 14% | 1011.8 hPa | 0 mm | 0 m/s | - | - |
| 1787469346 | 32.78° C | 14% | 1011.8 hPa | 0 mm | 0 m/s | - | - |
| 1787469044 | 33.33° C | 14% | 1011.8 hPa | 0 mm | 1.79 m/s, 222° | - | - |
| 1787468746 | 33.33° C | 14% | 1011.8 hPa | 0 mm | 0 m/s | - | - |
| 1787468448 | 33.33° C | 14% | 1011.8 hPa | 0 mm | 1.79 m/s, 197° | - | - |
| 1787468146 | 33.89° C | 14% | 1011.8 hPa | 0 mm | 2.68 m/s, 171° | - | - |
| 1787467848 | 33.89° C | 14% | 1011.8 hPa | 0 mm | 3.13 m/s, 221° | - | - |
| 1787467550 | 34.44° C | 14% | 1011.8 hPa | 0 mm | 3.13 m/s, 256° | - | - |
| 1787467249 | 34.44° C | 11% | 1011.8 hPa | 0 mm | 4.47 m/s, 206° | - | - |
* Rain latest hour (hover to see other rain measurements)
** Current wind speed in m/s (hover to see current wind gust speed)